Regional Weather Roundup
Issued by NWS

Home | Current Version | Previous Version | Text Only | Print | Product List | Glossary Off
Versions: 1 2 3 4 5 6 7 8 9 10 11 12 13 14 15 16 17 18 19 20 21 22 23 24 25 26 27

000
ASUS45 KBOI 251010
RWRID

IDAHO REGIONAL WEATHER ROUNDUP
NATIONAL WEATHER SERVICE BOISE ID
400 AM MDT MON JUL 25 2016

NOTE: "FAIR" INDICATES FEW OR NO CLOUDS BELOW 12000 FEET
WITH NO SIGNIFICANT WEATHER AND/OR OBSTRUCTIONS TO VISIBILITY

IDZ012-014-251100-
SOUTHWEST IDAHO


CITY           SKY/WX    TMP DP  RH WIND       PRES   REMARKS
BOISE          CLEAR     67  35  30 SE8       29.98R
CALDWELL       NOT AVBL
MOUNTAIN HOME  CLEAR     62  38  42 E1        29.99R
$$

IDZ016-017-251100-
SOUTHCENTRAL IDAHO


CITY           SKY/WX    TMP DP  RH WIND       PRES   REMARKS
BURLEY         CLEAR     56  40  55 CALM      30.06S
JEROME         CLEAR     63  35  35 SE3       30.06S
TWIN FALLS     CLEAR     63  26  24 S10       30.06S
$$

IDZ019>023-251100-
SOUTHEAST IDAHO


CITY           SKY/WX    TMP DP  RH WIND       PRES   REMARKS
IDAHO FALLS    CLOUDY    47  41  80 CALM      30.13R
POCATELLO      CLOUDY    52  33  48 E3        30.11S
REXBURG        CLEAR     49  43  80 NE5       30.14R
$$

IDZ006-010-011-018-031-032-251100-
CENTRAL IDAHO MOUNTAINS


CITY           SKY/WX    TMP DP  RH WIND       PRES   REMARKS
MCCALL         CLEAR     54  43  66 CALM      30.14S
HAILEY         CLEAR     54  36  50 NW10      30.18S
STANLEY        NOT AVBL
SALMON         CLEAR     55  43  62 CALM      30.08S
CHALLIS        CLEAR     60  35  39 E3        30.13S
$$

IDZ002-004-006-007-026-251100-
NORTHERN IDAHO


CITY           SKY/WX    TMP DP  RH WIND       PRES   REMARKS
LEWISTON       CLEAR     65  43  44 S5        29.97R
LOWELL           N/A     57  51  80 NW3       30.05R
COEUR D`ALENE  CLEAR     57  52  82 E5        30.01R
MULLAN PASS    CLEAR     60  42  51 CALM      30.20F
$$




USA.gov is the U.S. government's official web portal to all federal, state and local government web resources and services.